EW6281 Weather Reports


time (UTC)temp
C
wind
direction
speed
KPH
gust
KPH
rain 1hr
cm
rain 24hr
cm
rain mn
cm
humidity
%
barometer
mb
20260507084556 12 0 0.0 9.7 0.00 0.00 0.00 70 1016.2
20260507083057 12 217 1.6 9.7 0.00 0.00 0.00 71 1016.3
20260507081556 12 118 0.0 6.4 0.00 0.00 0.00 74 1016.2
20260507074607 9 0 0.0 0.0 0.00 0.00 0.00 84 1016.2
20260507073102 8 0 0.0 0.0 0.00 0.00 0.00 86 1016.2
20260507071555 7 0 0.0 0.0 0.00 0.00 0.00 88 1016.2
20260507070115 7 0 0.0 0.0 0.00 0.00 0.00 89 1016.1
20260507064605 7 0 0.0 0.0 0.00 0.00 0.00 90 1016.1
20260507063059 7 0 0.0 0.0 0.00 0.00 0.00 90 1016.1
20260507061558 6 0 0.0 0.0 0.00 0.00 0.00 91 1016.1
20260507060053 5 0 0.0 0.0 0.00 0.00 0.00 90 1016.0
20260507054554 5 0 0.0 0.0 0.00 0.00 0.00 89 1015.9
20260507053053 5 0 0.0 0.0 0.00 0.00 0.00 89 1015.8
20260507051558 5 0 0.0 0.0 0.00 0.00 0.00 89 1015.8
20260507044554 5 0 0.0 0.0 0.00 0.00 0.00 88 1015.4
20260507043057 5 0 0.0 0.0 0.00 0.00 0.00 88 1015.4
20260507041555 6 0 0.0 0.0 0.00 0.00 0.00 88 1015.5
20260507040110 6 0 0.0 0.0 0.00 0.00 0.00 89 1015.3
20260507034559 6 0 0.0 0.0 0.00 0.00 0.00 89 1015.3
20260507033102 6 0 0.0 0.0 0.00 0.00 0.00 89 1015.2
20260507031604 6 0 0.0 0.0 0.00 0.00 0.00 89 1015.3
20260507030053 6 0 0.0 0.0 0.00 0.00 0.00 89 1015.2
20260507024556 6 0 0.0 0.0 0.00 0.00 0.00 89 1015.1
20260507023056 6 0 0.0 0.0 0.00 0.00 0.00 89 1015.2
20260507021605 6 0 0.0 0.0 0.00 0.00 0.00 89 1015.2
20260507020058 6 0 0.0 0.0 0.00 0.00 0.00 89 1015.1
20260507014559 7 0 0.0 0.0 0.00 0.00 0.00 89 1015.1
20260507013114 7 0 0.0 0.0 0.00 0.00 0.00 89 1015.0
20260507011553 7 0 0.0 1.6 0.00 0.00 0.00 89 1015.0
20260507010104 7 0 0.0 4.8 0.00 0.00 0.00 89 1015.2
20260507004556 7 0 0.0 1.6 0.00 0.00 0.00 89 1015.1
20260507003056 7 0 0.0 4.8 0.00 0.00 0.00 89 1015.1
20260507001556 7 0 0.0 0.0 0.00 0.00 0.00 89 1015.1
20260507000054 7 0 0.0 0.0 0.00 0.00 0.00 89 1015.0
20260506234558 7 0 0.0 1.6 0.00 0.00 0.00 88 1015.0
20260506233106 7 0 0.0 6.4 0.00 0.00 0.00 88 1015.1
20260506231600 7 0 0.0 8.0 0.00 0.00 0.00 88 1015.0
20260506230105 7 20 0.0 4.8 0.00 0.00 0.00 88 1014.9
20260506224556 7 0 0.0 6.4 0.00 0.00 0.00 88 1015.1
20260506223056 7 0 0.0 4.8 0.00 0.00 0.00 87 1015.0
20260506221600 7 0 0.0 4.8 0.00 0.00 0.00 87 1015.1
20260506220100 7 0 0.0 8.0 0.00 0.00 0.00 87 1015.0
20260506214601 7 0 0.0 6.4 0.00 0.00 0.00 87 1015.0
20260506213055 7 0 1.6 6.4 0.00 0.00 0.00 87 1015.1
20260506211607 7 0 1.6 8.0 0.00 0.00 0.00 87 1015.0
20260506210054 7 0 0.0 12.9 0.00 0.00 0.00 86 1014.9
20260506204556 7 22 1.6 12.9 0.00 0.00 0.00 86 1014.6
20260506203054 7 0 4.8 14.5 0.00 0.00 0.00 85 1014.7
20260506201553 7 17 1.6 14.5 0.00 0.00 0.00 85 1014.6
20260506200052 7 0 0.0 12.9 0.00 0.00 0.00 84 1014.4
20260506194809 7 9 4.8 9.7 0.00 0.00 0.00 83 1014.5
20260506193055 7 49 1.6 8.0 0.00 0.00 0.00 82 1014.5
20260506191555 8 0 1.6 14.5 0.00 0.00 0.00 82 1014.4
20260506190056 8 5 3.2 16.1 0.00 0.00 0.00 80 1014.4
20260506184610 8 0 4.8 14.5 0.00 0.00 0.00 78 1014.1
20260506183056 8 0 3.2 16.1 0.00 0.00 0.00 76 1014.0
20260506181553 9 11 3.2 14.5 0.00 0.00 0.00 75 1013.9
20260506180055 9 38 4.8 19.3 0.00 0.00 0.00 75 1013.7
20260506174555 10 12 4.8 14.5 0.00 0.00 0.00 75 1013.5
20260506173112 10 62 3.2 16.1 0.00 0.00 0.00 73 1013.4
20260506171609 10 10 3.2 12.9 0.00 0.00 0.00 72 1013.3
20260506164611 10 26 3.2 14.5 0.00 0.00 0.00 70 1013.1
20260506163105 10 36 3.2 17.7 0.00 0.00 0.00 68 1013.0
20260506161554 10 30 4.8 16.1 0.00 0.00 0.00 69 1013.1
20260506160110 11 33 3.2 14.5 0.00 0.00 0.00 67 1013.1
20260506154558 11 13 3.2 16.1 0.00 0.00 0.00 64 1013.0
20260506153055 11 23 3.2 12.9 0.00 0.00 0.00 64 1013.1
20260506151555 11 0 1.6 14.5 0.00 0.00 0.00 66 1013.1
20260506150053 11 342 3.2 19.3 0.00 0.00 0.00 65 1013.0
20260506144556 11 9 6.4 12.9 0.00 0.00 0.00 65 1013.1
20260506143055 11 334 6.4 16.1 0.00 0.00 0.00 65 1013.1
20260506141610 11 24 4.8 16.1 0.00 0.00 0.00 66 1012.9
20260506140054 11 10 6.4 20.9 0.00 0.00 0.00 67 1013.0
20260506134558 11 76 4.8 17.7 0.00 0.00 0.00 69 1013.0
20260506133106 11 5 3.2 16.1 0.00 0.00 0.00 70 1013.1
20260506131556 11 26 6.4 19.3 0.00 0.00 0.00 70 1013.1
20260506130055 10 9 1.6 20.9 0.00 0.00 0.00 74 1013.2
20260506124554 10 15 6.4 20.9 0.00 0.00 0.00 73 1013.2
20260506123055 10 84 3.2 19.3 0.00 0.00 0.00 76 1013.4
20260506121602 10 54 4.8 20.9 0.00 0.00 0.00 76 1013.4
20260506120120 10 346 4.8 22.5 0.00 0.00 0.00 77 1013.3
20260506114556 10 22 9.7 22.5 0.00 0.00 0.00 79 1013.3
20260506113106 8 49 6.4 19.3 0.00 0.00 0.00 82 1013.5
20260506111552 8 19 3.2 14.5 0.00 0.00 0.00 81 1013.5
20260506110058 8 11 3.2 19.3 0.00 0.00 0.00 79 1013.6
20260506104555 8 26 3.2 19.3 0.00 0.00 0.00 80 1013.5
20260506103058 8 19 6.4 16.1 0.00 0.00 0.00 80 1013.6
20260506101552 8 16 6.4 17.7 0.00 0.00 0.00 79 1013.7
20260506100056 8 5 4.8 14.5 0.00 0.00 0.00 79 1013.7
20260506094554 8 32 4.8 19.3 0.00 0.00 0.00 78 1013.6
20260506093054 8 20 4.8 16.1 0.00 0.00 0.00 78 1013.6
20260506091553 8 360 6.4 22.5 0.00 0.00 0.00 77 1013.4
20260506090052 8 34 6.4 22.5 0.00 0.00 0.00 77 1013.3